Terminal Aerodrome Forecast
Issued by NWS

Home | Current Version | Previous Version | Text Only | Print | Product List | Glossary On
Versions: 1 2 3 4 5 6 7 8 9 10 11 12 13 14
000
FTUS43 KAPX 051139
TAFPLN
TAF
KPLN 051139Z 0512/0612 00000KT 6SM BR SCT001
     FM051300 21005KT P6SM FEW018
     FM051500 23005KT P6SM SCT050
     FM051900 30006KT P6SM FEW050
     FM060100 VRB03KT P6SM SKC
     FM060600 00000KT 3SM BR SKC=

USA.gov is the U.S. government's official web portal to all federal, state and local government web resources and services.